Regional Weather Roundup
Issued by NWS

Home | Current Version | Previous Version | Graphics & Text | Print | Product List | Glossary On
Versions: 1 2 3 4 5 6 7 8 9 10 11 12 13 14 15 16 17 18 19 20 21 22 23 24 25 26 27 28 29 30 31 32 33 34 35 36 37 38 39 40 41 42 43 44 45 46 47 48 49 50
000
ASUS43 KMKX 131211
RWRWI

WISCONSIN REGIONAL WEATHER ROUNDUP
NATIONAL WEATHER SERVICE MILWAUKEE/SULLIVAN WI
700 AM CDT SUN JUL 13 2014

NOTE: "FAIR" INDICATES FEW OR NO CLOUDS BELOW 12,000 FEET WITH NO
SIGNIFICANT WEATHER AND/OR OBSTRUCTIONS TO VISIBILITY.

WIZ001-002-006>008-014>016-023>028-131300-
NORTHWEST WISCONSIN

CITY           SKY/WX    TMP DP  RH WIND       PRES   REMARKS
SUPERIOR ARPT  SUNNY     54  51  90 CALM      29.91S
6HR MIN TEMP:  53; 6HR MAX TEMP:  62;

ASHLAND        SUNNY     56  52  86 SW6       29.91R
6HR MIN TEMP:  52; 6HR MAX TEMP:  64;

HAYWARD        SUNNY     56  52  86 CALM      29.92S
6HR MIN TEMP:  55; 6HR MAX TEMP:  64; 6HR PCP: TRACE;

SIREN          SUNNY     55  54  94 CALM      29.94R
6HR MIN TEMP:  53; 6HR MAX TEMP:  64;

RICE LAKE      MOSUNNY   58  54  87 NW5       29.94S
6HR MIN TEMP:  57; 6HR MAX TEMP:  62;

LADYSMITH      MOSUNNY   59  56  89 NW8       29.93R
6HR MIN TEMP:  59; 6HR MAX TEMP:  64;

EAU CLAIRE     SUNNY     62  59  90 NW7       29.92R
6HR MIN TEMP:  62; 6HR MAX TEMP:  64;

MENOMONIE      SUNNY     62  59  88 W3        29.93S
6HR MIN TEMP:  62; 6HR MAX TEMP:  64;

NEW RICHMOND   SUNNY     59  57  93 NW5       29.96R
6HR MIN TEMP:  58; 6HR MAX TEMP:  64;

OSCEOLA        MOSUNNY   60  58  93 NW5       29.98R
6HR MIN TEMP:  58; 6HR MAX TEMP:  65;

$$

WIZ003>005-009-010-017-018-131300-
NORTH CENTRAL WISCONSIN

CITY           SKY/WX    TMP DP  RH WIND       PRES   REMARKS
WOODRUFF       SUNNY     57  52  83 NW7G18    29.89R
6HR MIN TEMP:  57; 6HR MAX TEMP:  64;

RHINELANDER    PTSUNNY   61  58  90 W13       29.88R
6HR MIN TEMP:  60; 6HR MAX TEMP:  62;

EAGLE RIVER    MOSUNNY   58  53  83 NW12G20   29.87R
6HR MIN TEMP:  58; 6HR MAX TEMP:  62;

LAND O LAKES   PTSUNNY   58  52  79 NW8       29.88R
6HR MIN TEMP:  58; 6HR MAX TEMP:  64;

PHILLIPS       PTSUNNY   57  55  92 NW5       29.90R
6HR MIN TEMP:  57; 6HR MAX TEMP:  63;

TOMAHAWK       PTSUNNY   60  58  94 W8        29.90R
6HR MIN TEMP:  59; 6HR MAX TEMP:  61;

MEDFORD        MOSUNNY   61  59  94 W9        29.90S
6HR MIN TEMP:  61; 6HR MAX TEMP:  62;

MERRILL        PTSUNNY   63  61  92 W8        29.88R
6HR MIN TEMP:  61; 6HR MAX TEMP:  63;

$$

WIZ029-030-035-036-043>047-131300-
CENTRAL WISCONSIN

CITY           SKY/WX    TMP DP  RH WIND       PRES   REMARKS
WAUSAU         PTSUNNY   64  62  93 W12       29.87R
6HR MIN TEMP:  62; 6HR MAX TEMP:  64;

MOSINEE        PTSUNNY   63  63 100 W7        29.89S FOG
MARSHFIELD     CLOUDY    63  63 100 W7        29.90R FOG
6HR MIN TEMP:  60; 6HR MAX TEMP:  64;

STEVENS POINT  CLOUDY    62  60  96 W9G16     29.90R FOG
6HR MIN TEMP:  60; 6HR MAX TEMP:  62;

WAUPACA        PTSUNNY   65  63  92 W6        29.89R FOG
6HR MIN TEMP:  64; 6HR MAX TEMP:  66;

WAUTOMA        CLOUDY    65  64  96 W7        29.91R
6HR MIN TEMP:  62; 6HR MAX TEMP:  65;

WISC RAPIDS    CLOUDY    65  63  93 W6        29.91R
6HR MIN TEMP:  61; 6HR MAX TEMP:  65;

CAMP DOUGLAS   SUNNY     63  63 100 W2        29.91S
6HR MIN TEMP:  56; 6HR MAX TEMP:  63; 6HR PCP:  0.01;

$$

WIZ011>013-019>022-031-037>040-048>050-131300-
NORTHEAST WISCONSIN

CITY           SKY/WX    TMP DP  RH WIND       PRES   REMARKS
ANTIGO         CLOUDY    62  60  95 W13G18    29.88S
6HR MIN TEMP:  59; 6HR MAX TEMP:  62;

STURGEON BAY   PTSUNNY   64  61  88 W9        29.85R
6HR MIN TEMP:  61; 6HR MAX TEMP:  64;

GREEN BAY      CLOUDY    64  62  93 SW6       29.86S
6HR MIN TEMP:  62; 6HR MAX TEMP:  64;

MANITOWOC      SUNNY     66  62  87 W12       29.86R
6HR MIN TEMP:  62; 6HR MAX TEMP:  66;

APPLETON       PTSUNNY   63  63 100 W12       29.89R
CLINTONVILLE   MOSUNNY   63  61  94 W8        29.86S
OSHKOSH        CLOUDY    64  62  93 W8        29.89R
6HR MIN TEMP:  63; 6HR MAX TEMP:  65;

$$

WIZ032>034-041-042-053>061-131300-
SOUTHWEST WISCONSIN

CITY           SKY/WX    TMP DP  RH WIND       PRES   REMARKS
LA CROSSE      SUNNY     66  65  96 SE3       29.91S
6HR MIN TEMP:  63; 6HR MAX TEMP:  66;

SPARTA         MOSUNNY   62  61  97 CALM      29.92S FOG
6HR MIN TEMP:  59; 6HR MAX TEMP:  62;

VIROQUA        CLOUDY    64  64 100 SW9       29.95R VSB<1/4
6HR MIN TEMP:  62; 6HR MAX TEMP:  64; 6HR PCP:  0.01;

BOSCOBEL       CLOUDY    67  65  93 SW5       29.95R FOG
6HR MIN TEMP:  63; 6HR MAX TEMP:  67;

PRAIRIE DU CHI CLOUDY    66  64  91 SW3       29.95F
6HR MIN TEMP:  63; 6HR MAX TEMP:  67;

PLATTEVILLE    CLOUDY    65  64  96 W6        29.98S
6HR MIN TEMP:  62; 6HR MAX TEMP:  65;

$$

WIZ056-057-062-063-064-067-068-131300-
SOUTH CENTRAL WISCONSIN

CITY           SKY/WX    TMP DP  RH WIND       PRES   REMARKS
BARABOO/DELLS  PTSUNNY   63  61  94 W10       29.93R FOG
6HR MIN TEMP:  59; 6HR MAX TEMP:  63;

LONE ROCK      CLOUDY    69  65  86 W5        29.95R FOG
6HR MIN TEMP:  66; 6HR MAX TEMP:  69;

WATERTOWN      CLOUDY    64  63  97 W5        29.92R
6HR MIN TEMP:  62; 6HR MAX TEMP:  65; 6HR PCP:  0.01;

MADISON        CLOUDY    66  63  90 VRB3      29.93R
6HR MIN TEMP:  65; 6HR MAX TEMP:  66;

MIDDLETON      CLOUDY    65  65 100 W10       29.94R
6HR MIN TEMP:  65; 6HR MAX TEMP:  66;

MONROE         CLOUDY    63  61  94 W10       29.95S FOG
JANESVILLE     CLOUDY    64  63  94 W5        29.94R
$$

WIZ051-052-058>065-066-070>072-131300-
SOUTHEAST WISCONSIN

CITY           SKY/WX    TMP DP  RH WIND       PRES   REMARKS
MILWAUKEE      MOSUNNY   66  61  84 W10       29.91R
6HR MIN TEMP:  65; 6HR MAX TEMP:  68;

WAUKESHA       PTSUNNY   63  61  94 W12       29.92S FOG
MILWAUKEE/TIMM MOSUNNY   64  61  88 W9        29.91R
RACINE         CLOUDY    65  63  93 W8        29.93R
6HR MIN TEMP:  65; 6HR MAX TEMP:  69; 6HR PCP: TRACE;

BURLINGTON     CLOUDY    63  62  97 W5        29.93R
6HR MIN TEMP:  61; 6HR MAX TEMP:  67;

KENOSHA        CLOUDY    65  64  97 W7        29.92R
6HR MIN TEMP:  64; 6HR MAX TEMP:  70;

FOND DU LAC    CLOUDY    65  62  90 W6        29.90R
6HR MIN TEMP:  62; 6HR MAX TEMP:  65;

SHEBOYGAN      MOSUNNY   65  62  90 W16       29.88R
6HR MIN TEMP:  62; 6HR MAX TEMP:  65;

WEST BEND      PTSUNNY   64  59  82 W14       29.90S
JUNEAU         CLOUDY    63  48  59 W8        29.93R
6HR MIN TEMP:  62; 6HR MAX TEMP:  64;

$$

LSZ147-162-131300-
LAKE SUPERIOR

STATION/POSITION TIME  TEMP    WIND        PRES    WAVE
                       AIR SEA DIR/SP/G            HT/PER
                 (UTC) (F)     (DEG/KT/KT) (MB)    (FT/S)
W MID LAKE BUOY  1150   45 38  260/ 12/ 14 1010.6R   1/ 4
PORT WING        1140   57     250/  6/  9 1012.5R
SAXON HARBOR     1100          220/  3/  6 1011.9R
$$

LMZ867-665-643>646-131300-
LAKE MICHIGAN

STATION/POSITION TIME  TEMP    WIND        PRES    WAVE
                       AIR SEA DIR/SP/G            HT/PER
                 (UTC) (F)     (DEG/KT/KT) (MB)    (FT/S)
N MID LAKE BUOY  1150   61 58  240/ 14/ 16 1008.0R   1/ 2
NORTHPORT PIER   1100   64     260/  5/ 12 1008.8R
KEWAUNEE LAKESHO 1100   63     280/  6/ 10 1010.8R
SHEBOYGAN LAKESH 1200   67     270/ 11/ 16 1011.6R
PORT WASHINGTON  1140   67     290/  8/ 15 1012.2R
MILWAUKEE LAKESH 1100   65     290/  8/ 10   N/A
S MID LAKE BUOY  1150   65 64  280/  8/ 10 1012.5R   1/ 4
KENOSHA   LAKESH 1200   66     280/  9/ 14   N/A
$$

TC  - TEMPERATURE IN CELSIUS
VSB - VISIBILITY IN STATUTE MILES
WCI - WIND CHILL INDEX
HX  - HEAT INDEX




USA.gov is the U.S. government's official web portal to all federal, state and local government web resources and services.